• Join FlightAware (Why Join?)
  • Login
  • US Flag 
12:07AM EDT


 

Airport Tracker/Info


-or-


 

Live Flight TrackerFlight Track Log ✈ N6149S ✈ 18-Jul-2013 ✈ KCVG - KAGC

Flight Track Log - Related Links

Times and Time Zones

All times are in EDT time to prevent confusion due to time zone crossing. See the N6149S flight status page for this flight to view local times or setup timezone preferences in your user account.

Time Position Orientation Groundspeed Altitude Reporting Facility
EDT Latitude Longitude Course Direction KTS MPH feet Rate Location/Type
08:38PM 39.4000 -84.3500 60° Northeast 146 168 2,900  Level Cincinnati TRACON
08:39PM 39.4139 -84.3186 60° Northeast 148 170 3,100 540 Climbing Indianapolis Center
08:40PM 39.4311 -84.2564 70° East 114 131 4,200 720 Climbing Indianapolis Center
08:41PM 39.4436 -84.2181 67° East 118 136 5,000 540 Climbing Indianapolis Center
08:42PM 39.4483 -84.1728 82° East 131 151 5,400 180 Climbing Indianapolis Center
08:43PM 39.4500 -84.1186 88° East 158 182 5,400  Level Indianapolis Center
08:44PM 39.4639 -84.0667 71° East 159 183 5,400  Level Indianapolis Center
08:45PM 39.4778 -84.0150 71° East 164 189 5,400  Level Indianapolis Center
08:46PM 39.4944 -83.9553 70° East 159 183 5,500 -60 Climbing Indianapolis Center
08:47PM 39.5106 -83.9011 69° East 159 183 5,300 -60 Descending Indianapolis Center
08:48PM 39.5228 -83.8461 74° East 160 184 5,400  Climbing Indianapolis Center
08:50PM 39.5378 -83.7808 73° East 155 178 5,400  Level Indianapolis Center
08:50PM 39.5472 -83.7308 76° East 155 178 5,400  Level Indianapolis Center
08:51PM 39.5586 -83.6811 73° East 163 188 5,400  Level Indianapolis Center
08:52PM 39.5744 -83.6269 69° East 156 180 5,400  Level Indianapolis Center
08:53PM 39.5861 -83.5744 74° East 157 181 5,400 -60 Level Indianapolis Center
08:54PM 39.5978 -83.5222 74° East 157 181 5,300  Descending Indianapolis Center
08:55PM 39.6114 -83.4700 71° East 157 181 5,400  Climbing Indianapolis Center
08:56PM 39.6253 -83.4153 72° East 158 182 5,400  Level Indianapolis Center
08:57PM 39.6419 -83.3528 71° East 160 184 5,400  Level Indianapolis Center
08:58PM 39.6558 -83.2981 72° East 159 183 5,500  Climbing Indianapolis Center
09:00PM 39.6700 -83.2378 73° East 158 182 5,400 -60 Descending Indianapolis Center
09:01PM 39.6817 -83.1853 74° East 159 183 5,400  Level Indianapolis Center
09:01PM 39.6928 -83.1353 74° East 156 180 5,400  Level Indianapolis Center
09:02PM 39.7042 -83.0828 74° East 158 182 5,500  Climbing Indianapolis Center
09:04PM 39.7161 -83.0222 76° East 160 184 5,400 -60 Descending Indianapolis Center
09:04PM 39.7272 -82.9722 74° East 161 185 5,400  Level Indianapolis Center
09:05PM 39.7367 -82.9167 78° East 160 184 5,400  Level Indianapolis Center
09:07PM 39.7497 -82.8481 76° East 158 182 5,400  Level Indianapolis Center
09:08PM 39.7583 -82.8003 77° East 159 183 5,400  Level Indianapolis Center
09:09PM 39.7694 -82.7478 75° East 156 180 5,400  Level Indianapolis Center
09:10PM 39.7881 -82.6853 69° East 160 184 5,400  Level Indianapolis Center
09:11PM 39.8014 -82.6303 72° East 159 183 5,400  Level Indianapolis Center
09:12PM 39.8169 -82.5753 70° East 159 183 5,500  Climbing Indianapolis Center
09:13PM 39.8303 -82.5231 72° East 158 182 5,400 -60 Descending Indianapolis Center
09:14PM 39.8422 -82.4594 76° East 157 181 5,400  Level Indianapolis Center
09:15PM 39.8486 -82.4114 80° East 158 182 5,400  Level Indianapolis Center
09:16PM 39.8583 -82.3531 78° East 157 181 5,400  Level Indianapolis Center
09:17PM 39.8686 -82.2900 78° East 157 181 5,400  Level Indianapolis Center
09:18PM 39.8761 -82.2331 80° East 159 183 5,400  Level Indianapolis Center
09:19PM 39.8850 -82.1758 79° East 160 184 5,400  Level Indianapolis Center
09:20PM 39.8939 -82.1097 80° East 158 182 5,400  Level Indianapolis Center
09:21PM 39.9031 -82.0536 78° East 157 181 5,400  Level Indianapolis Center
09:22PM 39.9136 -81.9972 76° East 160 184 5,400  Level Indianapolis Center
09:23PM 39.9233 -81.9408 77° East 159 183 5,400  Level Indianapolis Center
09:24PM 39.9375 -81.8853 72° East 159 183 5,400  Level Indianapolis Center
09:25PM 39.9467 -81.8289 78° East 159 183 5,400  Level Indianapolis Center
09:26PM 39.9561 -81.7722 78° East 159 183 5,500  Climbing Indianapolis Center
09:27PM 39.9656 -81.7164 78° East 157 181 5,500 -60 Level Indianapolis Center
09:28PM 39.9742 -81.6569 79° East 156 180 5,400 -60 Descending Indianapolis Center
09:29PM 39.9839 -81.6000 77° East 159 183 5,400  Level Indianapolis Center
09:30PM 39.9933 -81.5436 78° East 158 182 5,400  Level Indianapolis Center
09:31PM 40.0053 -81.4864 75° East 160 184 5,500  Climbing Indianapolis Center
09:32PM 40.0167 -81.4292 75° East 162 186 5,400 -60 Descending Indianapolis Center
09:33PM 40.0281 -81.3758 74° East 155 178 5,400  Level Indianapolis Center
09:34PM 40.0400 -81.3236 73° East 153 176 5,400  Level Indianapolis Center
09:35PM 40.0550 -81.2581 73° East 157 181 5,400  Level Indianapolis Center
09:36PM 40.0625 -81.2036 80° East 154 177 5,500  Climbing Indianapolis Center
09:37PM 40.0706 -81.1511 79° East 149 171 5,400 -60 Descending Indianapolis Center
09:39PM 40.0789 -81.0944 79° East 154 177 5,400  Level Indianapolis Center